Miscellaneous Local Product
Issued by NWS Hastings, NE

Home | Current Version | Previous Version | Graphics & Text | Print | Product List | Glossary On
Versions: 1 2 3 4 5 6 7 8 9 10 11 12 13 14 15 16 17 18 19 20 21 22 23 24 25 26 27 28 29 30 31 32 33 34 35 36 37 38 39 40 41 42 43 44 45 46 47 48 49 50
000
AXUS43 KGID 202002
MISGRI

GID CWA HOURLY WEATHER ROUNDUP
NATIONAL WEATHER SERVICE HASTINGS NE
300 PM CDT SUN AUG 20 2017

NOTE: "FAIR" INDICATES FEW OR NO CLOUDS BELOW 12,000 FEET WITH NO
SIGNIFICANT WEATHER AND/OR OBSTRUCTIONS TO VISIBILITY.

...SOUTH CENTRAL NEBRASKA...

CITY           SKY/WX    TMP DP  RH WIND       PRES   REMARKS
GRAND ISLAND   MOSUNNY   85  75  72 S8        29.93S HX  93
HASTINGS       SUNNY     86  73  65 E8        29.93S HX  93
KEARNEY        SUNNY     87  73  62 SE10      29.92F HX  94
ORD            MOSUNNY   83  68  60 SE10      29.93S
YORK           SUNNY     84  73  70 SE13      29.93F HX  91
AURORA         MOSUNNY   85  74  69 SE10      29.92F HX  93
LEXINGTON      SUNNY     85  72  65 SE8G16    29.92F HX  91
HOLDREGE       SUNNY     87  68  52 SE6       29.92S HX  90
HEBRON         SUNNY     91  73  55 SE8       29.91F HX  99

...NEBRASKA PANHANDLE...

CITY           SKY/WX    TMP DP  RH WIND       PRES   REMARKS
CHADRON        SUNNY     84  50  30 SE13G23   30.02F
ALLIANCE       SUNNY     83  56  39 E15G22    30.04F
SCOTTSBLUFF    SUNNY     85  55  35 E9        30.04F
SIDNEY         SUNNY     87  60  40 NE12      30.06F

...WESTERN AND NORTH CENTRAL NEBRASKA...

CITY           SKY/WX    TMP DP  RH WIND       PRES   REMARKS
VALENTINE      SUNNY     85  54  34 NE15G26   30.01F
AINSWORTH      SUNNY     79  64  60 NE16G23   30.01F
ONEILL         PTSUNNY   82  69  64 E6        29.97S
BROKEN BOW     MOSUNNY   82  68  62 E9        29.95F
IMPERIAL       SUNNY     89  63  41 NE7       29.97S HX  90
NORTH PLATTE   SUNNY     87  69  54 SE10      29.95S HX  91
MCCOOK         SUNNY     91  61  36 CALM      29.91F HX  91

...EASTERN NEBRASKA...

CITY           SKY/WX    TMP DP  RH WIND       PRES   REMARKS
NORFOLK        MOSUNNY   82  68  62 SE10G20   29.93F
SO SIOUX CITY  MOSUNNY   86  71  60 VRB6      29.94S HX  91
TEKAMAH        SUNNY     83  67  58 S3        29.95F
COLUMBUS       PTSUNNY   82  72  71 E10G17    29.95F
ALBION         CLOUDY    80  71  74 SE10      29.96S
OMAHA EPPLEY   CLOUDY    78  67  68 SE10      29.96S THUNDER
OFFUTT AFB     MOSUNNY   84  68  57 SE9G20    29.95F
MILLARD        MOSUNNY   86  65  49 SE16G25   29.95F
LINCOLN        SUNNY     83  70  64 SE14      29.95F
NEBRASKA CITY  SUNNY     80  66  62 SE18G24   29.97F
BEATRICE       SUNNY     90  73  56 SE14G20   29.94S HX  97
FALLS CITY     SUNNY     83  66  56 SE20G25   29.97F

...NORTHERN KANSAS...

CITY           SKY/WX    TMP DP  RH WIND       PRES   REMARKS
GOODLAND       PTSUNNY   91  58  32 CALM      29.97F HX  90
HILL CITY      MOSUNNY   98  63  31 S12       29.89F HX 100
NORTON         CLEAR     97  52  21 S12       29.89F HX  94
PHILLIPSBURG   SUNNY     97  64  34 S10       29.88S HX  99
SMITH CENTER   PTSUNNY   93  70  46 S10G20    29.89S HX  99
HAYS           MOSUNNY   99  62  29 S20       29.88F HX 100
RUSSELL        SUNNY     97  65  34 S20G25    29.88F HX  99
CONCORDIA      CLOUDY    93  72  50 S15       29.90F HX 101
SALINA         SUNNY    102  66  30 S16G24    29.88F HX 106
TOPEKA         MOSUNNY   91  76  61 E12       29.95S HX 103



USA.gov is the U.S. government's official web portal to all federal, state and local government web resources and services.